Time,TemperatureF,DewpointF,PressureIn,WindDirection,WindDirectionDegrees,WindSpeedMPH,WindSpeedGustMPH,Humidity,HourlyPrecipIn,Conditions,Clouds,dailyrainin,SolarRadiationWatts/m^2,SoftwareType,DateUTC
2013-04-16 00:07:00,71.7,69.0,30.10,ESE,115,0.0,0.0,91,0.00,,,0.00,0,weatherlink.com 1.10,2013-04-16 04:07:00,
2013-04-16 00:23:00,71.3,69.0,30.10,ESE,115,0.0,1.0,92,0.00,,,0.00,0,weatherlink.com 1.10,2013-04-16 04:23:00,
2013-04-16 00:37:00,70.9,69.0,30.10,ESE,115,0.0,0.0,93,0.00,,,0.00,0,weatherlink.com 1.10,2013-04-16 04:37:00,
2013-04-16 00:52:00,70.6,69.0,30.10,ESE,115,0.0,0.0,93,0.00,,,0.00,0,weatherlink.com 1.10,2013-04-16 04:52:00,
2013-04-16 01:07:00,70.2,69.0,30.09,ESE,115,0.0,0.0,94,0.00,,,0.00,0,weatherlink.com 1.10,2013-04-16 05:07:00,
2013-04-16 01:23:00,69.9,68.0,30.09,ESE,115,0.0,0.0,94,0.00,,,0.00,0,weatherlink.com 1.10,2013-04-16 05:23:00,
2013-04-16 01:38:00,69.7,68.0,30.09,ESE,115,0.0,0.0,94,0.00,,,0.00,0,weatherlink.com 1.10,2013-04-16 05:38:00,
2013-04-16 01:53:00,69.4,68.0,30.09,ESE,115,0.0,0.0,94,0.00,,,0.00,0,weatherlink.com 1.10,2013-04-16 05:53:00,
2013-04-16 02:09:00,69.2,68.0,30.08,ESE,115,0.0,0.0,95,0.00,,,0.00,0,weatherlink.com 1.10,2013-04-16 06:09:00,
2013-04-16 02:23:00,69.0,68.0,30.08,ESE,115,0.0,0.0,95,0.00,,,0.00,0,weatherlink.com 1.10,2013-04-16 06:23:00,
2013-04-16 02:39:00,68.9,68.0,30.08,ESE,115,0.0,0.0,95,0.00,,,0.00,0,weatherlink.com 1.10,2013-04-16 06:39:00,
2013-04-16 02:53:00,68.7,67.0,30.08,ESE,115,0.0,0.0,95,0.00,,,0.00,0,weatherlink.com 1.10,2013-04-16 06:53:00,
2013-04-16 03:08:00,68.6,67.0,30.07,ESE,115,0.0,0.0,95,0.00,,,0.00,0,weatherlink.com 1.10,2013-04-16 07:08:00,
2013-04-16 03:23:00,68.5,67.0,30.07,ESE,115,0.0,0.0,95,0.00,,,0.00,0,weatherlink.com 1.10,2013-04-16 07:23:00,
2013-04-16 03:39:00,68.3,67.0,30.07,ESE,115,0.0,0.0,96,0.00,,,0.00,0,weatherlink.com 1.10,2013-04-16 07:39:00,
2013-04-16 03:54:00,68.1,67.0,30.07,ESE,115,0.0,2.0,96,0.00,,,0.00,0,weatherlink.com 1.10,2013-04-16 07:54:00,
2013-04-16 04:09:00,68.0,67.0,30.07,ESE,115,0.0,1.0,96,0.00,,,0.00,0,weatherlink.com 1.10,2013-04-16 08:09:00,
2013-04-16 04:24:00,67.9,67.0,30.07,ESE,115,0.0,0.0,96,0.00,,,0.00,0,weatherlink.com 1.10,2013-04-16 08:24:00,
2013-04-16 04:40:00,67.8,67.0,30.07,ESE,115,0.0,0.0,96,0.00,,,0.00,0,weatherlink.com 1.10,2013-04-16 08:40:00,
2013-04-16 04:54:00,67.6,67.0,30.07,ESE,115,0.0,2.0,96,0.00,,,0.00,0,weatherlink.com 1.10,2013-04-16 08:54:00,
2013-04-16 05:09:00,67.6,67.0,30.07,ESE,115,0.0,0.0,96,0.00,,,0.00,0,weatherlink.com 1.10,2013-04-16 09:09:00,
2013-04-16 05:24:00,67.6,67.0,30.07,ESE,115,0.0,0.0,96,0.00,,,0.00,0,weatherlink.com 1.10,2013-04-16 09:24:00,
2013-04-16 05:40:00,67.6,67.0,30.08,ESE,115,0.0,0.0,96,0.00,,,0.00,0,weatherlink.com 1.10,2013-04-16 09:40:00,
2013-04-16 05:54:00,67.6,67.0,30.08,ESE,115,0.0,0.0,96,0.00,,,0.00,0,weatherlink.com 1.10,2013-04-16 09:54:00,
2013-04-16 06:10:00,67.6,67.0,30.09,ESE,115,0.0,0.0,96,0.00,,,0.00,0,weatherlink.com 1.10,2013-04-16 10:10:00,
2013-04-16 06:25:00,67.4,66.0,30.09,ESE,115,0.0,0.0,96,0.00,,,0.00,0,weatherlink.com 1.10,2013-04-16 10:25:00,
2013-04-16 06:41:00,67.4,66.0,30.10,ESE,115,0.0,0.0,96,0.00,,,0.00,0,weatherlink.com 1.10,2013-04-16 10:41:00,
2013-04-16 06:55:00,67.4,66.0,30.10,ESE,115,0.0,0.0,96,0.00,,,0.00,0,weatherlink.com 1.10,2013-04-16 10:55:00,
2013-04-16 07:10:00,67.8,67.0,30.11,NE,38,0.0,2.0,97,0.00,,,0.00,11,weatherlink.com 1.10,2013-04-16 11:10:00,
2013-04-16 07:26:00,68.6,68.0,30.12,NE,38,0.0,0.0,97,0.00,,,0.00,21,weatherlink.com 1.10,2013-04-16 11:26:00,
2013-04-16 07:40:00,69.4,69.0,30.12,NE,47,0.0,1.0,97,0.00,,,0.00,30,weatherlink.com 1.10,2013-04-16 11:40:00,
2013-04-16 07:55:00,71.5,71.0,30.13,ENE,59,2.0,3.0,97,0.00,,,0.00,40,weatherlink.com 1.10,2013-04-16 11:55:00,
2013-04-16 08:11:00,73.1,73.0,30.14,NE,53,0.0,4.0,98,0.00,,,0.00,183,weatherlink.com 1.10,2013-04-16 12:11:00,
2013-04-16 08:26:00,75.1,74.0,30.14,East,94,1.0,7.0,96,0.00,,,0.00,234,weatherlink.com 1.10,2013-04-16 12:26:00,
2013-04-16 08:41:00,77.1,73.0,30.14,NNE,19,2.0,8.0,87,0.00,,,0.00,299,weatherlink.com 1.10,2013-04-16 12:41:00,
2013-04-16 08:56:00,77.9,73.0,30.15,SE,128,3.0,10.0,84,0.00,,,0.00,381,weatherlink.com 1.10,2013-04-16 12:56:00,
2013-04-16 09:11:00,78.6,73.0,30.14,ESE,102,3.0,9.0,83,0.00,,,0.00,531,weatherlink.com 1.10,2013-04-16 13:11:00,
2013-04-16 09:27:00,79.0,73.0,30.15,NE,53,2.0,10.0,81,0.00,,,0.00,213,weatherlink.com 1.10,2013-04-16 13:27:00,
2013-04-16 09:41:00,78.9,72.0,30.15,East,94,2.0,10.0,80,0.00,,,0.00,237,weatherlink.com 1.10,2013-04-16 13:41:00,
2013-04-16 09:57:00,79.6,72.0,30.15,ENE,64,2.0,11.0,78,0.00,,,0.00,756,weatherlink.com 1.10,2013-04-16 13:57:00,
2013-04-16 10:12:00,80.2,72.0,30.16,ENE,61,2.0,10.0,76,0.00,,,0.00,188,weatherlink.com 1.10,2013-04-16 14:12:00,
2013-04-16 10:27:00,80.0,72.0,30.16,ESE,109,4.0,8.0,76,0.00,,,0.00,292,weatherlink.com 1.10,2013-04-16 14:27:00,
2013-04-16 10:43:00,80.5,72.0,30.16,North,5,2.0,7.0,76,0.00,,,0.00,334,weatherlink.com 1.10,2013-04-16 14:43:00,
2013-04-16 10:57:00,81.0,72.0,30.16,ENE,64,2.0,8.0,75,0.00,,,0.00,856,weatherlink.com 1.10,2013-04-16 14:57:00,
2013-04-16 11:13:00,82.3,73.0,30.17,ESE,122,1.0,9.0,73,0.00,,,0.00,309,weatherlink.com 1.10,2013-04-16 15:13:00,
2013-04-16 11:27:00,83.1,72.0,30.17,SE,124,5.0,13.0,70,0.00,,,0.00,946,weatherlink.com 1.10,2013-04-16 15:27:00,
2013-04-16 11:42:00,82.7,72.0,30.17,ENE,68,3.0,8.0,71,0.00,,,0.00,295,weatherlink.com 1.10,2013-04-16 15:42:00,
2013-04-16 11:59:00,83.4,72.0,30.17,SE,128,1.0,10.0,69,0.00,,,0.00,1079,weatherlink.com 1.10,2013-04-16 15:59:00,
2013-04-16 12:14:00,83.6,72.0,30.17,North,355,2.0,15.0,68,0.00,,,0.00,327,weatherlink.com 1.10,2013-04-16 16:14:00,
2013-04-16 12:28:00,83.2,73.0,30.17,East,96,3.0,11.0,71,0.00,,,0.00,1095,weatherlink.com 1.10,2013-04-16 16:28:00,
2013-04-16 12:43:00,83.2,72.0,30.17,ENE,76,5.0,10.0,69,0.00,,,0.00,1069,weatherlink.com 1.10,2013-04-16 16:43:00,
2013-04-16 12:59:00,82.9,72.0,30.17,ENE,67,7.0,13.0,69,0.00,,,0.00,332,weatherlink.com 1.10,2013-04-16 16:59:00,
2013-04-16 13:14:00,82.5,71.0,30.16,ESE,120,5.0,16.0,69,0.00,,,0.00,1100,weatherlink.com 1.10,2013-04-16 17:14:00,
2013-04-16 13:29:00,83.1,71.0,30.16,NE,51,3.0,10.0,66,0.00,,,0.00,976,weatherlink.com 1.10,2013-04-16 17:29:00,
2013-04-16 13:44:00,84.0,70.0,30.15,NE,39,3.0,11.0,62,0.00,,,0.00,974,weatherlink.com 1.10,2013-04-16 17:44:00,
2013-04-16 13:59:00,83.9,70.0,30.15,NE,49,2.0,9.0,63,0.00,,,0.00,930,weatherlink.com 1.10,2013-04-16 17:59:00,
2013-04-16 14:14:00,83.7,69.0,30.15,ENE,67,4.0,10.0,62,0.00,,,0.00,919,weatherlink.com 1.10,2013-04-16 18:14:00,
2013-04-16 14:29:00,84.8,71.0,30.14,East,91,7.0,11.0,63,0.00,,,0.00,926,weatherlink.com 1.10,2013-04-16 18:29:00,
2013-04-16 14:44:00,84.7,70.0,30.14,NNE,27,0.0,8.0,62,0.00,,,0.00,875,weatherlink.com 1.10,2013-04-16 18:44:00,
2013-04-16 14:59:00,84.2,70.0,30.14,ESE,104,5.0,10.0,62,0.00,,,0.00,854,weatherlink.com 1.10,2013-04-16 18:59:00,
2013-04-16 15:14:00,83.2,69.0,30.14,NW,325,1.0,12.0,63,0.00,,,0.00,821,weatherlink.com 1.10,2013-04-16 19:14:00,
2013-04-16 15:30:00,83.5,70.0,30.13,NNE,24,1.0,9.0,64,0.00,,,0.00,798,weatherlink.com 1.10,2013-04-16 19:30:00,
2013-04-16 15:45:00,83.3,72.0,30.13,NW,314,9.0,11.0,68,0.00,,,0.00,761,weatherlink.com 1.10,2013-04-16 19:45:00,
2013-04-16 15:59:00,83.1,70.0,30.13,East,98,1.0,9.0,65,0.00,,,0.00,729,weatherlink.com 1.10,2013-04-16 19:59:00,
2013-04-16 16:15:00,82.9,72.0,30.13,ENE,62,2.0,8.0,69,0.00,,,0.00,677,weatherlink.com 1.10,2013-04-16 20:15:00,
2013-04-16 16:31:00,82.7,71.0,30.13,North,360,4.0,11.0,68,0.00,,,0.00,86,weatherlink.com 1.10,2013-04-16 20:31:00,
2013-04-16 16:46:00,82.4,70.0,30.13,NNE,24,2.0,11.0,66,0.00,,,0.00,76,weatherlink.com 1.10,2013-04-16 20:46:00,
2013-04-16 17:01:00,80.9,69.0,30.13,ESE,103,4.0,12.0,67,0.00,,,0.00,77,weatherlink.com 1.10,2013-04-16 21:01:00,
2013-04-16 17:16:00,81.0,69.0,30.13,ESE,112,2.0,9.0,68,0.00,,,0.00,128,weatherlink.com 1.10,2013-04-16 21:16:00,
2013-04-16 17:31:00,80.3,70.0,30.13,North,9,1.0,16.0,70,0.00,,,0.00,396,weatherlink.com 1.10,2013-04-16 21:31:00,
2013-04-16 17:45:00,79.8,70.0,30.13,East,94,5.0,8.0,71,0.00,,,0.00,355,weatherlink.com 1.10,2013-04-16 21:45:00,
2013-04-16 18:00:00,79.6,69.0,30.14,East,88,3.0,10.0,71,0.00,,,0.00,301,weatherlink.com 1.10,2013-04-16 22:00:00,
2013-04-16 18:15:00,79.1,70.0,30.13,East,88,2.0,11.0,73,0.00,,,0.00,49,weatherlink.com 1.10,2013-04-16 22:15:00,
2013-04-16 18:31:00,78.7,69.0,30.14,South,183,3.0,11.0,72,0.00,,,0.00,49,weatherlink.com 1.10,2013-04-16 22:31:00,
2013-04-16 18:47:00,77.7,69.0,30.14,North,355,4.0,8.0,75,0.00,,,0.00,46,weatherlink.com 1.10,2013-04-16 22:47:00,
2013-04-16 19:01:00,77.1,69.0,30.14,East,101,3.0,6.0,76,0.00,,,0.00,28,weatherlink.com 1.10,2013-04-16 23:01:00,
2013-04-16 19:16:00,76.4,69.0,30.14,NE,43,5.0,8.0,77,0.00,,,0.00,19,weatherlink.com 1.10,2013-04-16 23:16:00,
2013-04-16 19:31:00,75.8,68.0,30.15,SSW,209,1.0,9.0,77,0.00,,,0.00,12,weatherlink.com 1.10,2013-04-16 23:31:00,
2013-04-16 19:46:00,75.4,68.0,30.15,ESE,109,0.0,6.0,78,0.00,,,0.00,0,weatherlink.com 1.10,2013-04-16 23:46:00,
2013-04-16 20:02:00,74.8,68.0,30.15,North,11,0.0,6.0,79,0.00,,,0.00,0,weatherlink.com 1.10,2013-04-17 00:02:00,
2013-04-16 20:17:00,74.4,68.0,30.16,NNW,330,1.0,4.0,80,0.00,,,0.00,0,weatherlink.com 1.10,2013-04-17 00:17:00,
2013-04-16 20:31:00,74.2,68.0,30.16,ESE,104,1.0,8.0,80,0.00,,,0.00,0,weatherlink.com 1.10,2013-04-17 00:31:00,
2013-04-16 20:47:00,74.0,68.0,30.16,North,10,5.0,7.0,81,0.00,,,0.00,0,weatherlink.com 1.10,2013-04-17 00:47:00,
2013-04-16 21:02:00,73.9,68.0,30.17,North,5,0.0,6.0,82,0.00,,,0.00,0,weatherlink.com 1.10,2013-04-17 01:02:00,
2013-04-16 21:17:00,73.8,68.0,30.17,NNE,12,1.0,6.0,82,0.00,,,0.00,0,weatherlink.com 1.10,2013-04-17 01:17:00,
2013-04-16 21:32:00,73.7,68.0,30.17,North,5,0.0,5.0,81,0.00,,,0.00,0,weatherlink.com 1.10,2013-04-17 01:32:00,
2013-04-16 21:47:00,73.5,67.0,30.17,ENE,60,2.0,4.0,81,0.00,,,0.00,0,weatherlink.com 1.10,2013-04-17 01:47:00,
2013-04-16 22:02:00,73.4,68.0,30.17,ESE,115,2.0,4.0,82,0.00,,,0.00,0,weatherlink.com 1.10,2013-04-17 02:02:00,
2013-04-16 22:17:00,73.1,67.0,30.17,NE,53,1.0,4.0,82,0.00,,,0.00,0,weatherlink.com 1.10,2013-04-17 02:17:00,
2013-04-16 22:32:00,72.8,67.0,30.17,ENE,62,0.0,3.0,82,0.00,,,0.00,0,weatherlink.com 1.10,2013-04-17 02:32:00,
2013-04-16 22:47:00,72.5,67.0,30.17,ENE,66,1.0,4.0,82,0.00,,,0.00,0,weatherlink.com 1.10,2013-04-17 02:47:00,
2013-04-16 23:02:00,72.3,67.0,30.16,East,93,0.0,5.0,83,0.00,,,0.00,0,weatherlink.com 1.10,2013-04-17 03:02:00,
2013-04-16 23:17:00,72.2,67.0,30.16,East,101,1.0,2.0,84,0.00,,,0.00,0,weatherlink.com 1.10,2013-04-17 03:17:00,
2013-04-16 23:32:00,72.0,67.0,30.16,East,81,0.0,3.0,84,0.00,,,0.00,0,weatherlink.com 1.10,2013-04-17 03:32:00,
2013-04-16 23:49:00,71.7,67.0,30.16,ENE,65,1.0,3.0,84,0.00,,,0.00,0,weatherlink.com 1.10,2013-04-17 03:49:00,